EHI
0 0 0 0 0 0 0 0 0 0 0 0 0 0 0 0 0 1 10 28 49 65 72 72 75 83 92 96 98 99 100 100 100 100 100 100 100 99 98 97 95 95 96 96
0 0 0 0 0 0 0 0 0 0 0 0 0 0 0 0 1 3 13 31 48 57 62 64 68 79 88 92 94 96 98 100 100 99 99 100 100 100 99 98 96 95 95 94
0 0 0 0 0 0 0 0 0 0 0 0 0 0 0 2 6 10 18 31 41 45 47 48 52 61 71 77 82 88 94 98 98 98 98 99 99 99 99 98 96 96 94 91
0 0 0 0 0 0 0 0 0 0 0 0 0 0 0 3 10 16 22 28 32 33 33 33 33 36 43 50 58 70 83 93 96 97 97 97 96 96 96 95 95 96 94 90
0 0 0 0 0 0 0 0 0 0 0 0 0 0 0 3 10 17 23 26 25 22 21 21 19 19 21 24 31 42 60 78 87 90 91 92 92 91 90 91 92 93 92 89
0 0 0 0 0 0 0 0 0 0 0 0 0 0 0 3 8 13 18 19 16 12 10 9 9 9 9 10 12 19 34 52 65 72 77 81 82 82 82 84 87 87 86 85
0 0 0 0 0 0 0 0 0 0 0 0 0 0 0 3 6 8 8 9 7 5 3 2 3 4 4 3 4 8 17 31 42 52 60 66 69 69 69 72 76 77 77 77
0 0 0 0 0 0 0 0 0 0 0 0 0 0 0 1 3 3 2 2 2 2 1 0 1 1 1 1 1 4 12 22 30 36 42 48 51 51 52 57 60 61 62 64
0 0 0 0 0 0 0 0 0 0 0 0 0 0 0 0 1 1 0 0 1 1 0 0 0 1 1 1 1 4 11 19 24 24 24 27 30 33 37 41 43 44 45 48
0 0 0 0 0 0 0 0 0 0 0 0 0 0 0 0 0 0 0 0 0 0 0 0 0 1 2 1 2 5 9 14 16 15 13 13 14 18 22 25 26 27 29 30
0 0 0 0 0 0 0 0 0 0 0 0 0 0 0 0 0 0 0 0 0 0 0 0 0 1 2 1 3 7 9 9 10 11 11 9 7 7 9 11 11 12 13 15
0 0 0 0 0 0 0 0 0 0 0 0 0 0 0 0 0 0 0 0 0 0 0 0 1 2 2 2 4 7 8 7 8 10 10 8 4 3 3 3 3 3 4 5
0 0 0 0 0 0 0 0 0 0 0 0 0 0 0 0 0 0 0 0 0 0 0 2 5 7 7 8 7 5 5 6 6 6 6 6 3 2 1 1 0 0 1 1
0 0 0 0 0 0 0 0 0 0 0 0 0 0 0 0 0 0 0 0 0 0 0 4 8 12 15 18 15 8 5 6 6 4 4 3 2 1 0 0 0 0 0 0
0 0 0 0 0 0 0 0 0 0 0 0 0 0 0 0 0 0 0 0 0 0 0 3 7 11 16 23 23 15 11 10 9 6 3 2 1 0 0 0 0 0 0 0
0 0 0 0 0 0 0 0 0 0 0 0 0 0 0 0 0 0 0 0 0 0 0 1 3 7 14 21 24 21 19 17 12 7 3 1 0 0 0 0 0 0 0 0
0 0 0 0 0 0 0 0 0 0 0 0 0 0 0 0 0 0 0 0 0 0 0 0 2 6 11 17 22 24 23 20 14 8 3 1 0 0 0 0 0 0 0 0
0 0 0 0 0 0 0 0 0 0 0 0 0 0 0 0 0 0 0 0 0 0 0 0 1 4 8 12 18 21 18 16 13 8 3 1 0 0 0 0 0 0 0 0
0 0 0 0 0 0 0 0 0 0 0 0 0 0 0 0 0 0 0 0 0 0 0 0 1 3 9 15 18 15 10 8 8 5 2 0 0 0 0 0 0 0 0 0
0 0 0 0 0 0 0 0 0 0 0 0 0 0 0 0 0 0 0 0 0 0 1 1 2 7 19 31 31 19 8 3 2 1 0 0 0 0 0 0 0 0 0 0
0 0 0 0 0 0 0 0 0 0 0 0 0 0 0 0 0 0 0 0 0 0 1 2 4 16 35 50 49 31 13 5 1 0 0 0 0 0 0 0 0 0 0 0
0 0 1 0 0 0 0 0 0 0 0 0 0 0 0 0 0 0 0 0 0 0 0 1 6 21 43 57 57 42 23 11 4 2 2 2 1 0 0 0 0 0 0 0
0 0 0 0 0 0 0 0 0 0 0 0 0 0 0 0 0 0 0 0 0 0 0 1 5 17 35 50 53 45 32 17 7 4 5 5 2 0 0 0 0 0 0 0
0 0 0 0 0 0 0 0 0 0 0 0 0 0 0 0 0 0 0 0 0 0 0 1 3 9 20 33 41 43 34 19 8 5 6 5 2 0 0 0 0 0 0 0
0 0 0 0 0 0 0 0 0 0 0 0 0 0 0 0 0 0 0 0 0 0 0 0 1 4 9 18 29 35 31 18 7 4 4 3 1 0 0 0 0 0 0 0
0 0 0 0 0 0 0 0 0 0 0 0 0 0 0 0 0 0 0 0 0 0 0 0 0 1 4 11 21 30 29 17 7 2 1 1 0 0 0 0 0 0 0 0
Wind_Speed
9 10 10 5 4 10 11 13 13 10 4 3 7 13 15 8 4 3 2 4 5 6 7 7 7 6 3 2 2 3 4 4 3 3 5 6 6 5 5 5 6 5 5 5
7 10 4 7 7 8 9 10 12 12 8 6 9 14 16 14 8 3 0 2 3 5 6 6 7 7 6 5 3 1 1 3 4 4 4 4 4 4 5 4 4 5 6 6
8 4 4 5 7 8 9 10 10 10 11 11 14 18 18 16 9 7 6 4 4 4 5 5 5 6 6 6 5 4 4 3 3 4 4 5 4 4 5 5 5 6 7 7
7 2 2 8 9 7 8 9 10 11 12 13 16 15 14 9 9 11 8 7 6 5 4 4 4 4 5 5 4 4 4 3 4 4 4 6 6 6 7 5 5 6 7 8
7 4 5 8 8 6 9 11 11 14 14 16 16 16 13 9 5 9 9 8 6 5 3 3 3 2 3 3 3 3 3 3 4 4 5 6 7 6 6 6 7 6 6 8
10 6 6 8 8 6 7 10 14 15 14 16 11 11 9 4 8 10 9 8 5 3 1 1 1 0 1 2 2 2 2 3 3 4 5 6 7 8 8 8 7 6 5 6
7 7 6 4 7 7 6 8 8 8 6 5 4 6 7 4 9 8 6 4 3 1 1 1 1 1 2 3 2 2 2 3 4 5 5 5 6 7 8 8 7 6 5 5
7 5 4 2 5 6 6 7 8 10 11 12 11 9 2 9 8 6 4 2 2 3 2 2 3 3 3 3 3 4 3 3 4 5 5 5 6 5 5 6 6 6 5 4
6 6 6 7 7 7 7 7 9 10 13 14 11 8 6 6 4 2 2 3 4 3 3 4 5 4 4 4 4 4 4 4 4 5 5 4 5 5 6 6 6 5 4 4
7 10 12 10 8 8 9 9 7 7 9 11 12 11 4 2 1 2 3 5 5 5 6 5 4 4 3 3 3 3 4 4 4 4 5 4 4 5 5 5 5 5 5 4
9 11 12 11 9 11 9 8 8 8 9 11 13 11 9 5 2 4 6 7 7 7 6 5 4 3 3 3 3 2 3 3 3 3 3 3 3 4 4 4 5 5 6 6
10 10 10 13 14 12 8 8 9 9 11 12 13 13 8 4 3 6 8 8 8 7 7 6 4 3 3 3 3 3 2 2 2 2 1 2 2 3 4 5 5 6 6 6
8 7 11 11 6 4 7 9 11 10 10 12 14 12 6 5 8 7 7 7 7 6 6 5 3 2 3 3 3 3 2 2 2 1 1 1 2 2 3 4 4 5 5 6
4 8 11 14 15 16 15 16 15 14 12 14 16 18 15 12 11 10 8 7 8 7 5 4 3 3 3 3 3 4 2 2 2 1 1 1 1 1 2 3 3 3 4 5
4 8 11 14 17 19 20 19 18 16 16 16 17 17 15 12 12 11 10 9 10 9 7 5 3 3 3 4 4 4 3 3 2 3 3 2 2 2 1 2 2 2 3 3
7 10 14 16 18 19 20 18 16 13 12 13 14 14 14 14 13 13 12 13 12 10 9 6 4 2 3 4 4 4 4 4 4 4 4 4 4 4 3 2 2 1 2 2
10 11 14 15 17 18 14 10 8 8 10 12 13 14 16 16 16 15 14 14 13 11 8 6 5 3 2 3 4 4 4 4 5 5 5 5 5 5 5 5 4 2 1 1
7 7 7 12 14 14 6 10 10 8 10 15 16 17 18 18 17 15 14 12 12 11 9 7 5 4 3 3 3 4 5 5 6 6 6 6 6 6 6 6 5 4 2 2
3 3 7 9 12 13 7 13 11 8 6 18 17 18 20 21 19 15 15 16 13 12 9 6 5 5 4 4 4 5 6 6 7 7 7 6 7 7 7 7 6 5 3 3
6 6 7 10 13 13 9 14 13 10 4 18 19 19 21 21 16 14 18 18 15 12 9 7 6 6 4 5 5 6 7 7 7 7 6 6 7 7 8 7 6 5 4 4
7 8 10 11 13 5 11 14 13 7 10 19 19 20 19 17 16 18 21 19 16 13 11 8 6 5 5 6 6 7 8 7 6 6 5 6 7 7 7 7 6 6 6 5
9 9 9 8 10 3 16 12 10 9 13 15 17 18 18 18 19 20 20 20 20 17 14 11 6 5 6 7 8 9 8 7 6 5 6 7 7 8 8 8 7 7 6 6
5 5 5 5 5 8 13 11 10 11 13 14 16 17 18 19 20 20 19 18 18 19 17 14 11 8 6 7 9 10 9 7 6 6 6 7 8 7 7 9 9 8 7 7
7 8 6 3 8 8 10 12 12 12 13 15 16 17 17 18 19 19 17 15 16 17 17 16 15 11 8 8 9 10 9 8 7 7 7 7 7 8 8 7 8 8 8 8
11 10 8 5 9 10 11 15 15 16 17 18 18 18 18 19 19 18 16 15 14 15 15 15 15 14 13 10 9 10 10 9 8 8 7 8 8 8 7 8 6 8 7 7
8 9 8 6 8 9 11 13 16 17 18 19 20 21 20 19 19 18 16 15 14 14 14 14 15 16 16 14 11 8 8 10 9 9 8 8 8 7 8 8 6 4 4 7
Wind_Direction
216 236 251 271 308 325 322 313 316 315 333 319 291 287 283 279 259 272 323 11 45 39 36 26 15 8 24 88 146 183 206 213 224 225 221 223 231 234 236 237 236 223 219 213
230 240 277 359 332 305 286 285 289 287 283 279 278 276 276 269 247 223 310 39 53 48 45 39 24 14 8 14 15 5 284 261 247 247 252 252 253 248 241 245 243 232 224 221
268 57 26 288 265 267 275 276 289 307 323 306 287 273 264 251 209 174 164 147 110 87 60 51 41 24 14 11 4 359 357 335 310 289 276 270 267 263 260 250 245 237 232 226
276 241 285 286 278 278 294 326 332 316 302 291 291 293 288 266 190 173 156 139 113 88 70 52 37 24 8 1 0 4 1 344 320 303 286 279 269 264 264 262 253 244 237 236
282 286 278 277 294 311 307 319 307 290 282 279 276 276 280 281 197 155 137 126 112 103 84 65 43 27 357 339 341 349 358 344 328 310 295 288 282 279 280 276 267 255 245 236
277 286 273 285 302 289 287 293 283 268 261 266 288 299 299 15 80 116 126 133 141 147 138 87 24 42 332 315 324 336 338 324 318 309 303 292 288 289 288 286 281 269 257 245
284 275 252 236 275 289 288 295 298 303 287 284 334 290 277 113 102 113 127 139 143 144 255 241 303 298 288 291 308 312 311 316 318 315 312 310 302 294 287 288 286 282 271 258
294 307 304 286 305 311 298 292 295 313 315 317 306 280 332 104 102 108 120 161 224 247 255 282 286 276 287 307 322 321 329 331 327 321 319 316 309 303 304 306 301 292 284 274
301 302 300 288 284 289 291 288 303 302 295 294 298 319 75 87 100 125 204 227 247 267 286 291 301 310 314 317 321 324 326 328 325 322 320 311 321 328 325 321 317 313 305 289
285 294 296 287 259 250 256 279 293 292 300 301 304 318 11 132 238 257 285 296 293 290 286 295 310 310 305 303 308 318 323 318 322 325 325 328 349 349 343 340 342 344 339 327
308 295 291 289 273 276 266 262 279 292 292 299 301 304 323 331 347 316 305 298 288 281 285 295 306 314 310 305 305 312 310 316 328 332 337 342 356 7 7 10 7 10 9 359
313 307 305 299 289 289 288 291 291 285 287 290 290 293 311 356 333 306 302 303 305 302 295 290 298 309 307 304 304 304 307 316 322 324 340 1 17 18 24 32 27 27 26 14
345 327 307 298 300 297 286 275 268 266 266 270 277 286 299 299 297 303 312 319 318 313 299 287 282 281 281 287 294 290 294 300 302 304 320 46 42 31 40 48 41 34 36 32
271 278 282 291 302 307 296 289 286 283 281 283 285 295 306 314 319 323 330 328 318 309 298 278 248 232 239 247 263 273 264 242 233 230 232 141 99 77 74 73 59 42 41 46
255 282 290 294 299 299 297 295 293 289 290 292 301 307 322 337 337 336 334 327 318 312 305 290 257 230 229 235 236 245 241 221 219 224 229 192 178 160 133 105 83 60 45 57
314 298 295 289 290 293 293 291 289 294 305 312 318 326 347 351 350 347 342 331 319 313 311 306 296 264 239 238 243 244 222 206 211 223 221 205 193 183 175 167 138 105 65 44
284 296 298 293 298 297 291 303 314 326 341 348 345 350 355 354 353 346 337 326 318 314 315 315 308 282 245 240 233 233 228 206 211 223 226 210 199 194 187 184 169 170 150 117
258 284 285 284 288 283 309 3 356 351 19 15 4 359 355 348 341 331 331 343 341 331 317 310 302 281 249 234 219 220 228 219 217 222 226 216 202 197 186 186 183 183 179 167
145 252 281 284 287 291 341 25 8 347 13 29 5 354 348 341 330 326 342 341 331 319 308 294 282 268 242 221 219 222 224 226 226 226 221 213 202 197 188 187 183 180 174 171
173 203 251 278 291 298 1 4 347 314 303 16 355 348 344 340 331 327 332 325 316 309 297 277 264 260 233 210 207 219 230 231 231 230 217 202 195 194 191 186 179 175 174 180
220 227 245 265 273 287 23 10 355 341 344 349 349 347 345 339 326 323 326 325 321 316 309 293 262 246 231 209 201 215 229 232 230 224 205 194 190 189 186 179 176 175 177 178
289 287 288 293 291 347 22 33 35 355 342 346 345 343 338 332 329 331 333 333 332 328 324 315 296 263 232 210 206 214 222 225 225 215 196 188 186 194 184 175 176 177 175 170
331 327 314 347 42 62 47 44 21 359 347 343 339 335 333 330 328 328 330 331 332 334 335 331 316 291 260 221 208 218 215 212 217 213 201 192 192 195 179 175 176 175 177 180
13 3 330 349 62 46 49 24 7 354 342 335 332 328 326 323 322 322 323 326 329 329 331 330 326 317 300 264 228 216 210 205 210 210 201 190 192 191 183 179 179 182 185 189
360 353 340 360 17 351 4 360 348 337 330 324 319 315 315 315 315 316 316 319 322 322 323 325 326 321 311 300 261 225 206 199 205 206 202 196 197 194 186 184 183 191 190 193
19 17 6 9 359 328 325 327 322 317 313 311 309 309 310 309 308 310 310 311 311 313 316 317 320 321 318 309 290 254 215 202 200 203 204 201 198 190 186 180 163 76 134 148